TimeCDT,TemperatureF,Dew PointF,Humidity,Sea Level PressureIn,VisibilityMPH,Wind Direction,Wind SpeedMPH,Gust SpeedMPH,PrecipitationIn,Events,Conditions,WindDirDegrees,DateUTC
12:35 AM,55.4,35.6,47,30.16,10.0,NNE,19.6,23.0,N/A,,Clear,30,2012-10-12 05:35:00
12:55 AM,55.4,33.8,44,30.16,10.0,NNE,17.3,24.2,N/A,,Clear,30,2012-10-12 05:55:00
1:15 AM,53.6,33.8,47,30.16,10.0,NNE,12.7,17.3,N/A,,Clear,20,2012-10-12 06:15:00
1:35 AM,53.6,33.8,47,30.16,10.0,NNE,13.8,-,N/A,,Clear,30,2012-10-12 06:35:00
1:55 AM,53.6,33.8,47,30.16,10.0,NNE,13.8,-,N/A,,Clear,30,2012-10-12 06:55:00
2:15 AM,51.8,33.8,50,30.16,10.0,NNE,15.0,19.6,N/A,,Clear,30,2012-10-12 07:15:00
2:35 AM,51.8,33.8,50,30.16,10.0,NNE,11.5,-,N/A,,Clear,20,2012-10-12 07:35:00
2:55 AM,51.8,33.8,50,30.16,10.0,NNE,13.8,-,N/A,,Clear,20,2012-10-12 07:55:00
3:15 AM,51.8,33.8,50,30.16,10.0,NNE,12.7,18.4,N/A,,Clear,30,2012-10-12 08:15:00
3:55 AM,51.8,33.8,50,30.16,10.0,NNE,13.8,-,N/A,,Overcast,30,2012-10-12 08:55:00
4:15 AM,51.8,33.8,50,30.15,10.0,NNE,11.5,-,N/A,,Overcast,30,2012-10-12 09:15:00
4:35 AM,51.8,33.8,50,30.14,10.0,NNE,16.1,19.6,N/A,,Overcast,30,2012-10-12 09:35:00
5:15 AM,51.8,33.8,50,30.15,10.0,NE,16.1,21.9,N/A,,Overcast,40,2012-10-12 10:15:00
5:35 AM,51.8,33.8,50,30.17,10.0,NE,15.0,18.4,N/A,,Overcast,40,2012-10-12 10:35:00
5:55 AM,51.8,33.8,50,30.17,10.0,NNE,15.0,-,N/A,,Overcast,30,2012-10-12 10:55:00
6:15 AM,51.8,33.8,50,30.18,10.0,NE,17.3,20.7,N/A,,Overcast,40,2012-10-12 11:15:00
7:35 AM,50.0,37.4,62,30.20,10.0,NE,13.8,-,N/A,,Overcast,40,2012-10-12 12:35:00
7:55 AM,50.0,37.4,62,30.21,10.0,NE,12.7,-,N/A,,Overcast,40,2012-10-12 12:55:00
8:15 AM,50.0,39.2,66,30.20,10.0,NE,12.7,-,N/A,,Overcast,40,2012-10-12 13:15:00
8:35 AM,50.0,41.0,71,30.21,7.0,NE,11.5,-,N/A,,Overcast,40,2012-10-12 13:35:00
9:15 AM,46.4,41.0,81,30.23,7.0,NE,9.2,-,N/A,,Overcast,50,2012-10-12 14:15:00
9:35 AM,46.4,41.0,81,30.23,7.0,NE,10.4,-,N/A,,Overcast,50,2012-10-12 14:35:00
9:55 AM,46.4,41.0,81,30.23,7.0,ENE,12.7,-,N/A,,Overcast,60,2012-10-12 14:55:00
10:15 AM,46.4,42.8,87,30.24,7.0,NE,11.5,-,N/A,,Overcast,50,2012-10-12 15:15:00
10:35 AM,46.4,42.8,87,30.24,4.0,ENE,10.4,-,N/A,,Overcast,60,2012-10-12 15:35:00
10:55 AM,46.4,44.6,93,30.24,3.0,NE,9.2,-,N/A,,Light Drizzle,50,2012-10-12 15:55:00
11:15 AM,46.4,44.6,93,30.23,3.0,NE,8.1,-,N/A,,Light Drizzle,50,2012-10-12 16:15:00
11:35 AM,46.4,44.6,93,30.22,3.0,NE,6.9,-,N/A,,Overcast,40,2012-10-12 16:35:00
12:15 PM,46.4,46.4,100,30.22,3.0,NE,5.8,-,N/A,,Overcast,50,2012-10-12 17:15:00
12:35 PM,46.4,46.4,100,30.22,2.0,Calm,Calm,-,N/A,,Drizzle,0,2012-10-12 17:35:00
12:55 PM,46.4,46.4,100,30.21,2.0,Calm,Calm,-,N/A,,Drizzle,0,2012-10-12 17:55:00
1:35 PM,48.2,46.4,93,30.20,3.0,Calm,Calm,-,N/A,,Drizzle,0,2012-10-12 18:35:00
2:55 PM,48.2,46.4,93,30.16,4.0,Calm,Calm,-,N/A,,Overcast,0,2012-10-12 19:55:00
3:35 PM,48.2,46.4,93,30.15,7.0,NNW,5.8,-,N/A,,Overcast,340,2012-10-12 20:35:00
3:55 PM,48.2,48.2,100,30.15,5.0,Calm,Calm,-,N/A,,Overcast,0,2012-10-12 20:55:00
4:15 PM,48.2,46.4,93,30.10,4.0,NE,9.2,-,N/A,,Overcast,40,2012-10-12 21:15:00
4:35 PM,48.2,48.2,100,30.15,4.0,South,3.5,-,N/A,Thunderstorm,Overcast,190,2012-10-12 21:35:00
4:55 PM,50.0,48.2,94,30.13,2.5,Calm,Calm,-,N/A,,Light Drizzle,0,2012-10-12 21:55:00
5:15 PM,50.0,48.2,94,30.11,3.0,ESE,6.9,-,N/A,Rain,Light Rain,110,2012-10-12 22:15:00
5:35 PM,50.0,50.0,100,30.09,1.2,ESE,8.1,-,N/A,,Overcast,110,2012-10-12 22:35:00
5:55 PM,50.0,50.0,100,30.07,0.8,East,8.1,-,N/A,,Overcast,100,2012-10-12 22:55:00
6:15 PM,50.0,50.0,100,30.09,0.8,East,4.6,-,N/A,Thunderstorm,Overcast,100,2012-10-12 23:15:00
6:35 PM,50.0,50.0,100,30.09,1.0,Calm,Calm,-,N/A,,Overcast,0,2012-10-12 23:35:00
6:55 PM,50.0,50.0,100,30.09,0.8,Calm,Calm,-,N/A,,Overcast,0,2012-10-12 23:55:00
7:15 PM,50.0,50.0,100,30.08,0.8,Calm,Calm,-,N/A,,Overcast,0,2012-10-13 00:15:00
7:55 PM,50.0,50.0,100,30.08,1.2,Calm,Calm,-,N/A,,Light Drizzle,0,2012-10-13 00:55:00
8:15 PM,50.0,50.0,100,30.08,1.5,Calm,Calm,-,N/A,Rain,Rain,0,2012-10-13 01:15:00
8:35 PM,50.0,50.0,100,30.07,1.2,Calm,Calm,-,N/A,,Drizzle,0,2012-10-13 01:35:00
8:55 PM,50.0,50.0,100,30.08,1.8,Calm,Calm,-,0.01,,Drizzle,0,2012-10-13 01:55:00
9:15 PM,51.8,50.0,94,30.07,1.8,Calm,Calm,-,N/A,,Drizzle,0,2012-10-13 02:15:00
9:35 PM,51.8,50.0,94,30.05,1.8,Calm,Calm,-,0.01,Rain,Rain,0,2012-10-13 02:35:00
10:15 PM,51.8,51.8,100,30.04,1.8,Calm,Calm,-,N/A,,Overcast,0,2012-10-13 03:15:00
10:55 PM,51.8,51.8,100,30.02,0.8,ESE,4.6,-,N/A,,Overcast,120,2012-10-13 03:55:00
11:15 PM,51.8,51.8,100,30.00,0.5,Calm,Calm,-,N/A,Fog,Fog,0,2012-10-13 04:15:00
11:35 PM,51.8,51.8,100,30.01,0.2,SSE,4.6,-,N/A,Fog,Fog,150,2012-10-13 04:35:00